Location: Kosice
(48.7167°N, 21.2500°E)
Time: 05:51:47
(UTC+01:00)

ISS - Visible Passes

Search period start: 23 February 2018 00:00
Search period end: 05 March 2018 00:00
Orbit: 402 x 407 km, 51.6° (Epoch: 23 February)

Date Brightness Start Highest point End Pass type
(mag) Time Alt. Az. Time Alt. Az. Time Alt. Az.
25 Feb -0.5 05:43:42 10° SSE 05:44:41 11° SE 05:45:39 10° ESE visible
27 Feb -1.4 05:33:41 10° SSW 05:36:16 22° SE 05:38:52 10° E visible
28 Feb -0.9 04:42:32 10° SSE 04:44:12 13° SE 04:45:52 10° ESE visible
01 Mar -2.7 05:24:50 10° SW 05:27:56 41° SSE 05:31:03 10° ENE visible
02 Mar -1.9 04:34:05 17° S 04:35:45 26° SE 04:38:32 10° E visible
03 Mar -1.2 03:44:04 16° SE 03:44:04 16° SE 03:45:43 10° E visible
03 Mar -3.7 05:16:44 12° WSW 05:19:40 75° SSE 05:22:56 10° ENE visible
04 Mar -3.2 04:26:36 38° SSW 04:27:22 48° SSE 04:30:33 10° ENE visible
